"read_dt","SO2 (ppb)","flags","PMT voltage (V)","lamp voltage (V)","lamp intensity (Hz)","internal temp (C)","react chamber temp (C)","sample flow (l/min)","pres (mmHg)","SO2 bkg (ppb)","SO2 coefficient"
2016-03-15 00:00:00,1777E-3,5C000400,-0724,0835,12061,022.3,045.3,0.265,760.6,01.16,0.508
2016-03-15 00:01:00,1956E-3,5C000400,-0724,0834,12134,022.3,045.3,0.265,760.6,01.16,0.508
2016-03-15 00:02:00,1892E-3,5C000400,-0724,0835,12106,022.3,045.2,0.265,760.6,01.16,0.508
2016-03-15 00:03:00,1626E-3,5C000400,-0724,0835,12130,022.3,045.3,0.265,760.6,01.16,0.508
2016-03-15 00:04:00,1708E-3,5C000400,-0724,0834,12189,022.3,045.3,0.265,760.6,01.16,0.508
2016-03-15 00:05:00,1774E-3,5C000400,-0724,0835,12036,022.3,045.3,0.266,760.6,01.16,0.508
2016-03-15 00:06:00,1816E-3,5C000400,-0724,0835,12165,022.3,045.3,0.265,760.6,01.16,0.508
2016-03-15 00:07:00,1841E-3,5C000400,-0724,0835,12025,022.3,045.3,0.265,760.6,01.16,0.508
2016-03-15 00:08:00,1783E-3,5C000400,-0724,0835,12205,022.3,045.3,0.265,760.6,01.16,0.508
2016-03-15 00:09:00,1659E-3,5C000400,-0724,0835,12176,022.3,045.3,0.265,760.5,01.16,0.508
2016-03-15 00:10:00,1788E-3,5C000400,-0724,0835,12144,022.3,045.3,0.265,760.5,01.16,0.508
2016-03-15 00:11:00,1705E-3,5C000400,-0724,0834,12111,022.3,045.3,0.265,760.5,01.16,0.508
2016-03-15 00:12:00,1848E-3,5C000400,-0724,0834,12120,022.3,045.3,0.265,760.5,01.16,0.508
2016-03-15 00:13:00,1731E-3,5C000400,-0724,0835,12148,022.4,045.3,0.265,760.5,01.16,0.508
2016-03-15 00:14:00,1604E-3,5C000400,-0724,0835,12208,022.3,045.3,0.265,760.5,01.16,0.508
2016-03-15 00:15:00,1699E-3,5C000400,-0724,0834,12222,022.4,045.3,0.265,760.5,01.16,0.508
2016-03-15 00:16:00,1793E-3,5C000400,-0724,0835,12216,022.3,045.3,0.265,760.6,01.16,0.508
2016-03-15 00:17:00,1889E-3,5C000400,-0724,0835,12261,022.4,045.3,0.265,760.5,01.16,0.508
2016-03-15 00:18:00,1784E-3,5C000400,-0724,0835,12232,022.4,045.3,0.265,760.5,01.16,0.508
2016-03-15 00:19:00,1709E-3,5C000400,-0724,0835,12220,022.4,045.3,0.265,760.5,01.16,0.508
2016-03-15 00:20:00,1789E-3,5C000400,-0724,0835,12163,022.4,045.3,0.265,760.5,01.16,0.508
2016-03-15 00:21:00,1652E-3,5C000400,-0724,0835,12252,022.4,045.3,0.265,760.5,01.16,0.508
2016-03-15 00:22:00,1831E-3,5C000400,-0724,0835,12198,022.4,045.3,0.265,760.5,01.16,0.508
2016-03-15 00:23:00,1819E-3,5C000400,-0724,0835,12163,022.3,045.3,0.265,760.5,01.16,0.508
2016-03-15 00:24:00,1824E-3,5C000400,-0724,0835,12136,022.4,045.3,0.265,760.5,01.16,0.508
2016-03-15 00:25:00,1782E-3,5C000400,-0724,0835,12297,022.4,045.3,0.265,760.5,01.16,0.508
2016-03-15 00:26:00,1795E-3,5C000400,-0724,0836,12110,022.4,045.3,0.265,760.5,01.16,0.508
2016-03-15 00:27:00,1768E-3,5C000400,-0724,0835,12205,022.4,045.3,0.265,760.5,01.16,0.508
2016-03-15 00:28:00,1769E-3,5C000400,-0724,0835,12199,022.4,045.3,0.265,760.5,01.16,0.508
2016-03-15 00:29:00,1864E-3,5C000400,-0724,0835,12154,022.4,045.3,0.265,760.5,01.16,0.508
2016-03-15 00:30:00,1691E-3,5C000400,-0724,0835,12081,022.4,045.3,0.265,760.5,01.16,0.508
2016-03-15 00:31:00,1839E-3,5C000400,-0724,0835,12124,022.4,045.3,0.265,760.5,01.16,0.508
2016-03-15 00:32:00,1668E-3,5C000400,-0724,0835,12238,022.4,045.3,0.265,760.5,01.16,0.508
2016-03-15 00:33:00,1697E-3,5C000400,-0724,0834,12217,022.4,045.3,0.265,760.5,01.16,0.508
2016-03-15 00:34:00,1773E-3,5C000400,-0724,0835,12182,022.4,045.3,0.265,760.5,01.16,0.508
2016-03-15 00:35:00,1866E-3,5C000400,-0724,0834,12214,022.4,045.3,0.265,760.5,01.16,0.508
2016-03-15 00:36:00,1835E-3,5C000400,-0724,0835,12256,022.4,045.3,0.265,760.5,01.16,0.508
2016-03-15 00:37:00,1797E-3,5C000400,-0724,0835,12133,022.4,045.3,0.265,760.5,01.16,0.508
2016-03-15 00:38:00,1800E-3,5C000400,-0724,0835,12222,022.4,045.3,0.265,760.5,01.16,0.508
2016-03-15 00:39:00,1697E-3,5C000400,-0724,0834,12216,022.4,045.3,0.265,760.5,01.16,0.508
2016-03-15 00:40:00,1841E-3,5C000400,-0724,0835,12246,022.4,045.3,0.265,760.5,01.16,0.508
2016-03-15 00:41:00,1877E-3,5C000400,-0724,0834,12104,022.4,045.3,0.265,760.5,01.16,0.508
2016-03-15 00:42:00,1856E-3,5C000400,-0724,0835,12157,022.4,045.3,0.265,760.5,01.16,0.508
2016-03-15 00:43:00,1729E-3,5C000400,-0724,0834,12101,022.4,045.3,0.265,760.4,01.16,0.508
2016-03-15 00:44:00,1742E-3,5C000400,-0724,0835,12039,022.4,045.3,0.265,760.4,01.16,0.508
2016-03-15 00:45:00,1817E-3,5C000400,-0724,0835,12188,022.4,045.3,0.265,760.4,01.16,0.508
2016-03-15 00:46:00,1769E-3,5C000400,-0724,0835,12131,022.4,045.3,0.265,760.5,01.16,0.508
2016-03-15 00:47:00,1768E-3,5C000400,-0724,0835,12194,022.5,045.3,0.265,760.5,01.16,0.508
2016-03-15 00:48:00,1675E-3,5C000400,-0724,0835,12114,022.5,045.3,0.265,760.5,01.16,0.508
2016-03-15 00:49:00,1781E-3,5C000400,-0724,0835,12142,022.5,045.3,0.265,760.5,01.16,0.508
2016-03-15 00:50:00,1817E-3,5C000400,-0724,0835,12148,022.5,045.3,0.265,760.5,01.16,0.508
2016-03-15 00:51:00,1749E-3,5C000400,-0724,0835,12192,022.5,045.3,0.265,760.5,01.16,0.508
2016-03-15 00:52:00,1746E-3,5C000400,-0724,0835,12139,022.5,045.3,0.265,760.5,01.16,0.508
2016-03-15 00:53:00,1874E-3,5C000400,-0724,0834,12182,022.5,045.3,0.265,760.4,01.16,0.508
2016-03-15 00:54:00,1688E-3,5C000400,-0724,0836,12160,022.5,045.3,0.265,760.4,01.16,0.508
2016-03-15 00:55:00,1914E-3,5C000400,-0724,0834,12133,022.5,045.3,0.265,760.4,01.16,0.508
2016-03-15 00:56:00,1693E-3,5C000400,-0724,0836,12152,022.5,045.3,0.265,760.4,01.16,0.508
2016-03-15 00:57:00,1737E-3,5C000400,-0724,0835,12122,022.5,045.3,0.265,760.4,01.16,0.508
2016-03-15 00:58:00,1768E-3,5C000400,-0724,0836,12140,022.6,045.3,0.265,760.4,01.16,0.508
2016-03-15 00:59:00,1748E-3,5C000400,-0724,0835,12148,022.5,045.3,0.265,760.4,01.16,0.508
2016-03-15 01:00:00,1784E-3,5C000400,-0724,0835,12105,022.5,045.3,0.265,760.4,01.16,0.508
2016-03-15 01:01:00,1763E-3,5C000400,-0724,0835,12208,022.5,045.3,0.265,760.4,01.16,0.508
2016-03-15 01:02:00,1774E-3,5C000400,-0724,0835,12067,022.5,045.3,0.265,760.4,01.16,0.508
2016-03-15 01:03:00,1698E-3,5C000400,-0724,0835,12056,022.6,045.3,0.265,760.4,01.16,0.508
2016-03-15 01:04:00,1721E-3,5C000400,-0724,0835,11918,022.5,045.3,0.265,760.4,01.16,0.508
2016-03-15 01:05:00,1947E-3,5C000400,-0724,0835,12152,022.6,045.3,0.265,760.4,01.16,0.508
2016-03-15 01:06:00,1727E-3,5C000400,-0724,0835,12047,022.5,045.3,0.265,760.4,01.16,0.508
2016-03-15 01:07:00,1768E-3,5C000400,-0724,0835,12192,022.6,045.3,0.265,760.4,01.16,0.508
2016-03-15 01:08:00,1701E-3,5C000400,-0724,0835,12216,022.6,045.3,0.265,760.4,01.16,0.508
2016-03-15 01:09:00,1683E-3,5C000400,-0724,0835,12214,022.6,045.3,0.265,760.4,01.16,0.508
2016-03-15 01:10:00,1776E-3,5C000400,-0724,0835,12052,022.6,045.3,0.265,760.4,01.16,0.508
2016-03-15 01:11:00,1772E-3,5C000400,-0724,0834,12027,022.6,045.3,0.265,760.4,01.16,0.508
2016-03-15 01:12:00,1779E-3,5C000400,-0724,0835,11960,022.6,045.3,0.264,760.4,01.16,0.508
2016-03-15 01:13:00,1776E-3,5C000400,-0724,0835,12130,022.6,045.3,0.265,760.4,01.16,0.508
2016-03-15 01:14:00,1760E-3,5C000400,-0724,0835,12203,022.6,045.3,0.265,760.4,01.16,0.508
2016-03-15 01:15:00,1702E-3,5C000400,-0724,0835,12026,022.6,045.3,0.265,760.4,01.16,0.508
2016-03-15 01:16:00,1581E-3,5C000400,-0724,0836,12290,022.6,045.3,0.265,760.4,01.16,0.508
2016-03-15 01:17:00,1757E-3,5C000400,-0724,0834,12230,022.6,045.3,0.265,760.4,01.16,0.508
2016-03-15 01:18:00,1795E-3,5C000400,-0724,0835,12289,022.6,045.3,0.265,760.4,01.16,0.508
2016-03-15 01:19:00,1821E-3,5C000400,-0724,0834,12150,022.7,045.3,0.265,760.4,01.16,0.508
2016-03-15 01:20:00,1569E-3,5C000400,-0724,0834,12076,022.6,045.3,0.264,760.4,01.16,0.508
2016-03-15 01:21:00,1879E-3,5C000400,-0724,0835,12204,022.7,045.3,0.265,760.4,01.16,0.508
2016-03-15 01:22:00,1698E-3,5C000400,-0724,0834,11874,022.6,045.3,0.265,760.4,01.16,0.508
2016-03-15 01:23:00,1666E-3,5C000400,-0724,0835,12307,022.7,045.3,0.264,760.4,01.16,0.508
2016-03-15 01:24:00,1747E-3,5C000400,-0724,0835,12190,022.7,045.3,0.265,760.4,01.16,0.508
2016-03-15 01:25:00,1737E-3,5C000400,-0724,0834,12115,022.7,045.3,0.265,760.4,01.16,0.508
2016-03-15 01:26:00,1818E-3,5C000400,-0724,0835,12106,022.7,045.3,0.265,760.4,01.16,0.508
2016-03-15 01:27:00,1712E-3,5C000400,-0724,0835,12213,022.7,045.3,0.265,760.4,01.16,0.508
2016-03-15 01:28:00,1855E-3,5C000400,-0724,0835,12034,022.7,045.3,0.264,760.4,01.16,0.508
2016-03-15 01:29:00,1913E-3,5C000400,-0724,0835,12136,022.7,045.3,0.265,760.4,01.16,0.508
2016-03-15 01:30:00,1730E-3,5C000400,-0724,0835,11991,022.7,045.3,0.265,760.4,01.16,0.508
2016-03-15 01:31:00,1766E-3,5C000400,-0724,0835,12166,022.7,045.3,0.264,760.4,01.16,0.508
2016-03-15 01:32:00,1701E-3,5C000400,-0724,0835,12207,022.7,045.3,0.265,760.4,01.16,0.508
2016-03-15 01:33:00,1824E-3,5C000400,-0724,0835,12086,022.7,045.3,0.264,760.3,01.16,0.508
2016-03-15 01:34:00,1798E-3,5C000400,-0724,0835,12242,022.7,045.3,0.265,760.3,01.16,0.508
2016-03-15 01:35:00,1810E-3,5C000400,-0724,0835,12034,022.7,045.3,0.265,760.3,01.16,0.508
2016-03-15 01:36:00,1863E-3,5C000400,-0724,0834,12157,022.7,045.3,0.264,760.3,01.16,0.508
2016-03-15 01:37:00,1848E-3,5C000400,-0724,0836,12248,022.8,045.3,0.265,760.3,01.16,0.508
2016-03-15 01:38:00,1751E-3,5C000400,-0724,0835,12062,022.7,045.3,0.264,760.3,01.16,0.508
2016-03-15 01:39:00,1677E-3,5C000400,-0724,0835,12109,022.8,045.3,0.265,760.3,01.16,0.508
2016-03-15 01:40:00,1734E-3,5C000400,-0724,0835,12098,022.8,045.3,0.264,760.3,01.16,0.508
2016-03-15 01:41:00,1715E-3,5C000400,-0724,0835,12083,022.8,045.3,0.265,760.3,01.16,0.508
2016-03-15 01:42:00,1706E-3,5C000400,-0724,0835,12174,022.8,045.3,0.265,760.3,01.16,0.508
2016-03-15 01:43:00,1881E-3,5C000400,-0724,0835,12337,022.8,045.3,0.265,760.2,01.16,0.508
2016-03-15 01:44:00,1843E-3,5C000400,-0724,0834,12246,022.8,045.3,0.264,760.3,01.16,0.508
2016-03-15 01:45:00,1822E-3,5C000400,-0724,0835,12149,022.8,045.3,0.265,760.2,01.16,0.508
2016-03-15 01:46:00,1818E-3,5C000400,-0724,0835,12015,022.8,045.3,0.264,760.3,01.16,0.508
2016-03-15 01:47:00,1803E-3,5C000400,-0724,0835,12181,022.8,045.3,0.265,760.3,01.16,0.508
2016-03-15 01:48:00,1843E-3,5C000400,-0724,0835,12114,022.8,045.3,0.264,760.3,01.16,0.508
2016-03-15 01:49:00,1753E-3,5C000400,-0724,0835,12110,022.8,045.3,0.265,760.3,01.16,0.508
2016-03-15 01:50:00,1717E-3,5C000400,-0724,0835,12111,022.8,045.3,0.264,760.3,01.16,0.508
2016-03-15 01:51:00,1897E-3,5C000400,-0724,0834,12100,022.8,045.3,0.264,760.3,01.16,0.508
2016-03-15 01:52:00,1863E-3,5C000400,-0724,0835,12104,022.9,045.3,0.264,760.2,01.16,0.508
2016-03-15 01:53:00,1737E-3,5C000400,-0724,0836,12004,022.9,045.3,0.264,760.2,01.16,0.508
2016-03-15 01:54:00,1654E-3,5C000400,-0724,0836,12053,022.9,045.3,0.265,760.2,01.16,0.508
2016-03-15 01:55:00,1795E-3,5C000400,-0724,0835,12126,022.9,045.3,0.264,760.2,01.16,0.508
2016-03-15 01:56:00,1775E-3,5C000400,-0724,0835,12211,022.9,045.3,0.264,760.2,01.16,0.508
2016-03-15 01:57:00,1745E-3,5C000400,-0724,0835,12146,022.9,045.3,0.264,760.2,01.16,0.508
2016-03-15 01:58:00,1889E-3,5C000400,-0724,0835,12309,022.9,045.3,0.264,760.2,01.16,0.508
2016-03-15 01:59:00,1788E-3,5C000400,-0724,0834,11946,022.9,045.3,0.264,760.2,01.16,0.508
2016-03-15 02:00:00,1766E-3,5C000400,-0724,0836,12120,022.9,045.3,0.264,760.2,01.16,0.508
2016-03-15 02:01:00,1671E-3,5C000400,-0724,0834,12177,022.9,045.3,0.264,760.2,01.16,0.508
2016-03-15 02:02:00,1669E-3,5C000400,-0724,0836,12258,022.9,045.3,0.265,760.2,01.16,0.508
2016-03-15 02:03:00,1804E-3,5C000400,-0724,0835,12225,023.0,045.3,0.264,760.2,01.16,0.508
2016-03-15 02:04:00,1700E-3,5C000400,-0724,0835,12205,022.9,045.3,0.264,760.2,01.16,0.508
2016-03-15 02:05:00,1723E-3,5C000400,-0724,0835,12083,023.0,045.3,0.264,760.2,01.16,0.508
2016-03-15 02:06:00,1829E-3,5C000400,-0724,0835,12262,023.0,045.3,0.264,760.2,01.16,0.508
2016-03-15 02:07:00,1772E-3,5C000400,-0724,0835,12085,023.0,045.3,0.264,760.2,01.16,0.508
2016-03-15 02:08:00,1972E-3,5C000400,-0724,0835,12116,023.0,045.3,0.264,760.1,01.16,0.508
2016-03-15 02:09:00,1860E-3,5C000400,-0724,0835,12217,023.0,045.3,0.264,760.2,01.16,0.508
2016-03-15 02:10:00,1664E-3,5C000400,-0724,0835,12202,023.0,045.3,0.264,760.1,01.16,0.508
2016-03-15 02:11:00,1765E-3,5C000400,-0724,0835,12191,023.0,045.3,0.264,760.2,01.16,0.508
2016-03-15 02:12:00,1723E-3,5C000400,-0724,0835,12020,023.0,045.3,0.264,760.1,01.16,0.508
2016-03-15 02:13:00,1704E-3,5C000400,-0724,0834,12281,023.0,045.3,0.264,760.1,01.16,0.508
2016-03-15 02:14:00,1833E-3,5C000400,-0724,0835,12193,023.0,045.3,0.264,760.1,01.16,0.508
2016-03-15 02:15:00,1702E-3,5C000400,-0724,0835,12037,023.0,045.3,0.264,760.1,01.16,0.508
2016-03-15 02:16:00,1788E-3,5C000400,-0724,0835,12223,023.0,045.3,0.264,760.1,01.16,0.508
2016-03-15 02:17:00,1830E-3,5C000400,-0724,0834,12142,023.0,045.3,0.264,760.1,01.16,0.508
2016-03-15 02:18:00,1671E-3,5C000400,-0724,0835,12190,023.1,045.3,0.264,760.1,01.16,0.508
2016-03-15 02:19:00,1769E-3,5C000400,-0724,0835,12158,023.1,045.3,0.264,760.1,01.16,0.508
2016-03-15 02:20:00,1802E-3,5C000400,-0724,0835,12154,023.1,045.3,0.264,760.1,01.16,0.508
2016-03-15 02:21:00,1843E-3,5C000400,-0724,0835,12033,023.1,045.3,0.264,760.1,01.16,0.508
2016-03-15 02:22:00,1823E-3,5C000400,-0724,0835,12145,023.1,045.3,0.264,760.1,01.16,0.508
2016-03-15 02:23:00,1798E-3,5C000400,-0724,0835,12121,023.1,045.3,0.264,760.1,01.16,0.508
2016-03-15 02:24:00,1789E-3,5C000400,-0724,0835,12178,023.1,045.3,0.264,760.1,01.16,0.508
2016-03-15 02:25:00,1663E-3,5C000400,-0724,0835,12221,023.1,045.3,0.264,760.1,01.16,0.508
2016-03-15 02:26:00,1795E-3,5C000400,-0724,0835,12168,023.1,045.3,0.264,760.1,01.16,0.508
2016-03-15 02:27:00,1739E-3,5C000400,-0724,0835,12240,023.1,045.3,0.264,760.1,01.16,0.508
2016-03-15 02:28:00,1879E-3,5C000400,-0724,0835,12272,023.1,045.3,0.264,760.1,01.16,0.508
2016-03-15 02:29:00,1848E-3,5C000400,-0724,0835,12143,023.1,045.3,0.264,760.1,01.16,0.508
2016-03-15 02:30:00,1704E-3,5C000400,-0724,0835,12018,023.1,045.3,0.264,760.1,01.16,0.508
2016-03-15 02:31:00,1858E-3,5C000400,-0724,0835,12275,023.1,045.3,0.264,760.1,01.16,0.508
2016-03-15 02:32:00,1835E-3,5C000400,-0724,0835,12001,023.2,045.3,0.264,760.1,01.16,0.508
2016-03-15 02:33:00,1795E-3,5C000400,-0724,0835,12085,023.2,045.3,0.263,760.1,01.16,0.508
2016-03-15 02:34:00,1736E-3,5C000400,-0724,0835,12043,023.2,045.3,0.264,760.1,01.16,0.508
2016-03-15 02:35:00,1782E-3,5C000400,-0724,0835,12230,023.2,045.3,0.264,760.1,01.16,0.508
2016-03-15 02:36:00,1704E-3,5C000400,-0724,0835,12138,023.2,045.3,0.264,760.1,01.16,0.508
2016-03-15 02:37:00,1859E-3,5C000400,-0724,0836,12280,023.2,045.3,0.264,760.1,01.16,0.508
2016-03-15 02:38:00,1815E-3,5C000400,-0724,0835,12079,023.2,045.3,0.264,760.1,01.16,0.508
2016-03-15 02:39:00,1821E-3,5C000400,-0724,0835,12228,023.2,045.3,0.264,760.1,01.16,0.508
2016-03-15 02:40:00,1732E-3,5C000400,-0724,0836,12194,023.2,045.3,0.264,760.1,01.16,0.508
2016-03-15 02:41:00,1591E-3,5C000400,-0724,0835,12114,023.2,045.3,0.264,760.1,01.16,0.508
2016-03-15 02:42:00,1720E-3,5C000400,-0724,0835,12119,023.2,045.3,0.264,760.1,01.16,0.508
2016-03-15 02:43:00,1763E-3,5C000400,-0724,0834,12121,023.3,045.3,0.264,760.1,01.16,0.508
2016-03-15 02:44:00,1767E-3,5C000400,-0724,0835,12179,023.2,045.3,0.264,760.1,01.16,0.508
2016-03-15 02:45:00,1796E-3,5C000400,-0724,0835,12218,023.3,045.3,0.264,760.1,01.16,0.508
2016-03-15 02:46:00,1777E-3,5C000400,-0724,0834,12168,023.3,045.3,0.264,760.1,01.16,0.508
2016-03-15 02:47:00,1788E-3,5C000400,-0724,0835,12188,023.3,045.3,0.264,760.1,01.16,0.508
2016-03-15 02:48:00,1669E-3,5C000400,-0724,0835,12073,023.3,045.3,0.263,760.1,01.16,0.508
2016-03-15 02:49:00,1750E-3,5C000400,-0724,0835,12022,023.3,045.3,0.264,760.1,01.16,0.508
2016-03-15 02:50:00,1799E-3,5C000400,-0724,0835,12167,023.3,045.3,0.263,760.1,01.16,0.508
2016-03-15 02:51:00,1855E-3,5C000400,-0724,0835,12112,023.3,045.3,0.264,760.0,01.16,0.508
2016-03-15 02:52:00,1798E-3,5C000400,-0724,0834,12184,023.4,045.3,0.264,760.1,01.16,0.508
2016-03-15 02:53:00,1648E-3,5C000400,-0724,0835,12202,023.4,045.3,0.264,760.1,01.16,0.508
2016-03-15 02:54:00,1867E-3,5C000400,-0724,0835,12135,023.3,045.3,0.264,760.1,01.16,0.508
2016-03-15 02:55:00,1840E-3,5C000400,-0724,0836,12229,023.4,045.3,0.263,760.1,01.16,0.508
2016-03-15 02:56:00,1743E-3,5C000400,-0724,0835,12204,023.4,045.3,0.264,760.1,01.16,0.508
2016-03-15 02:57:00,1755E-3,5C000400,-0724,0835,12178,023.4,045.3,0.264,760.1,01.16,0.508
2016-03-15 02:58:00,1814E-3,5C000400,-0724,0836,12224,023.4,045.3,0.263,760.1,01.16,0.508
2016-03-15 02:59:00,1815E-3,5C000400,-0724,0835,12283,023.4,045.3,0.264,760.1,01.16,0.508
2016-03-15 03:00:00,1711E-3,5C000400,-0724,0835,12123,023.4,045.3,0.263,760.1,01.16,0.508
2016-03-15 03:01:00,1818E-3,5C000400,-0724,0834,12097,023.4,045.3,0.264,760.1,01.16,0.508
2016-03-15 03:02:00,1758E-3,5C000400,-0724,0835,12052,023.4,045.3,0.263,760.0,01.16,0.508
2016-03-15 03:03:00,1894E-3,5C000400,-0724,0835,12192,023.4,045.3,0.264,760.1,01.16,0.508
2016-03-15 03:04:00,1771E-3,5C000400,-0724,0835,12078,023.4,045.3,0.263,760.0,01.16,0.508
2016-03-15 03:05:00,1830E-3,5C000400,-0724,0835,12184,023.4,045.3,0.263,760.0,01.16,0.508
2016-03-15 03:06:00,1788E-3,5C000400,-0724,0835,12152,023.5,045.3,0.263,760.0,01.16,0.508
2016-03-15 03:07:00,1915E-3,5C000400,-0724,0835,11996,023.5,045.3,0.263,760.0,01.16,0.508
2016-03-15 03:08:00,1687E-3,5C000400,-0724,0835,12196,023.5,045.3,0.263,760.0,01.16,0.508
2016-03-15 03:09:00,1680E-3,5C000400,-0724,0834,12217,023.5,045.3,0.263,760.0,01.16,0.508
2016-03-15 03:10:00,1699E-3,5C000400,-0724,0836,12025,023.5,045.3,0.263,760.0,01.16,0.508
2016-03-15 03:11:00,1683E-3,5C000400,-0724,0835,12172,023.5,045.3,0.263,760.0,01.16,0.508
2016-03-15 03:12:00,1732E-3,5C000400,-0724,0836,12145,023.6,045.3,0.263,760.0,01.16,0.508
2016-03-15 03:13:00,1735E-3,5C000400,-0724,0835,12049,023.5,045.3,0.263,760.0,01.16,0.508
2016-03-15 03:14:00,1826E-3,5C000400,-0724,0835,12234,023.5,045.3,0.264,760.0,01.16,0.508
2016-03-15 03:15:00,1698E-3,5C000400,-0724,0835,12164,023.6,045.3,0.263,760.0,01.16,0.508
2016-03-15 03:16:00,1699E-3,5C000400,-0724,0835,12206,023.6,045.3,0.263,760.0,01.16,0.508
2016-03-15 03:17:00,1807E-3,5C000400,-0724,0835,12177,023.6,045.3,0.263,760.0,01.16,0.508
2016-03-15 03:18:00,1882E-3,5C000400,-0724,0835,12116,023.6,045.3,0.263,760.0,01.16,0.508
2016-03-15 03:19:00,1876E-3,5C000400,-0724,0834,12201,023.6,045.3,0.263,760.0,01.16,0.508
2016-03-15 03:20:00,1761E-3,5C000400,-0724,0835,11985,023.6,045.3,0.263,759.9,01.16,0.508
2016-03-15 03:21:00,1842E-3,5C000400,-0724,0835,12124,023.6,045.3,0.263,759.9,01.16,0.508
2016-03-15 03:22:00,1875E-3,5C000400,-0724,0835,12125,023.6,045.3,0.263,760.0,01.16,0.508
2016-03-15 03:23:00,1756E-3,5C000400,-0724,0834,12196,023.6,045.3,0.263,760.0,01.16,0.508
2016-03-15 03:24:00,1911E-3,5C000400,-0724,0835,12085,023.6,045.3,0.263,759.9,01.16,0.508
2016-03-15 03:25:00,1648E-3,5C000400,-0724,0835,12123,023.7,045.3,0.263,759.9,01.16,0.508
2016-03-15 03:26:00,1697E-3,5C000400,-0724,0835,12253,023.7,045.3,0.263,759.9,01.16,0.508
2016-03-15 03:27:00,1908E-3,5C000400,-0724,0836,12100,023.7,045.3,0.263,759.9,01.16,0.508
2016-03-15 03:28:00,1723E-3,5C000400,-0724,0835,12109,023.7,045.3,0.263,759.9,01.16,0.508
2016-03-15 03:29:00,1766E-3,5C000400,-0724,0835,12184,023.7,045.3,0.263,759.9,01.16,0.508
2016-03-15 03:30:00,1821E-3,5C000400,-0724,0835,12161,023.7,045.3,0.263,759.9,01.16,0.508
2016-03-15 03:31:00,1845E-3,5C000400,-0724,0835,12107,023.7,045.3,0.263,759.9,01.16,0.508
2016-03-15 03:32:00,1735E-3,5C000400,-0724,0835,12160,023.7,045.3,0.263,759.9,01.16,0.508
2016-03-15 03:33:00,1904E-3,5C000400,-0724,0835,12147,023.7,045.3,0.263,759.9,01.16,0.508
2016-03-15 03:34:00,1643E-3,5C000400,-0724,0835,12256,023.7,045.3,0.263,759.9,01.16,0.508
2016-03-15 03:35:00,1685E-3,5C000400,-0724,0835,12213,023.7,045.3,0.263,760.8,01.16,0.508
2016-03-15 03:36:00,1796E-3,5C000400,-0724,0835,12203,023.7,045.3,0.263,760.2,01.16,0.508
2016-03-15 03:37:00,1790E-3,5C000400,-0724,0835,12217,023.7,045.3,0.263,759.9,01.16,0.508
2016-03-15 03:38:00,1865E-3,5C000400,-0724,0835,12156,023.8,045.3,0.263,759.9,01.16,0.508
2016-03-15 03:39:00,1815E-3,5C000400,-0724,0835,12178,023.8,045.3,0.263,759.9,01.16,0.508
2016-03-15 03:40:00,1808E-3,5C000400,-0724,0835,12071,023.8,045.3,0.262,759.9,01.16,0.508
2016-03-15 03:41:00,1850E-3,5C000400,-0724,0835,12264,023.8,045.3,0.263,759.9,01.16,0.508
2016-03-15 03:42:00,1734E-3,5C000400,-0724,0835,12033,023.8,045.3,0.263,759.8,01.16,0.508
2016-03-15 03:43:00,1844E-3,5C000400,-0724,0836,12228,023.8,045.3,0.263,759.8,01.16,0.508
2016-03-15 03:44:00,1685E-3,5C000400,-0724,0835,12250,023.8,045.3,0.263,759.8,01.16,0.508
2016-03-15 03:45:00,1950E-3,5C000400,-0724,0836,12124,023.8,045.3,0.263,759.8,01.16,0.508
2016-03-15 03:46:00,1793E-3,5C000400,-0724,0834,12130,023.8,045.3,0.263,759.9,01.16,0.508
2016-03-15 03:47:00,1685E-3,5C000400,-0724,0835,12279,023.9,045.3,0.262,759.9,01.16,0.508
2016-03-15 03:48:00,1797E-3,5C000400,-0724,0835,12150,023.9,045.3,0.263,759.9,01.16,0.508
2016-03-15 03:49:00,1875E-3,5C000400,-0724,0835,12244,023.9,045.3,0.263,759.9,01.16,0.508
2016-03-15 03:50:00,1912E-3,5C000400,-0724,0836,12156,023.9,045.3,0.263,759.9,01.16,0.508
2016-03-15 03:51:00,1791E-3,5C000400,-0724,0835,12228,023.9,045.3,0.263,759.9,01.16,0.508
2016-03-15 03:52:00,1884E-3,5C000400,-0724,0835,12057,023.9,045.3,0.263,759.9,01.16,0.508
2016-03-15 03:53:00,1791E-3,5C000400,-0724,0834,12067,023.9,045.3,0.263,759.9,01.16,0.508
2016-03-15 03:54:00,1729E-3,5C000400,-0724,0835,12109,023.9,045.3,0.263,759.9,01.16,0.508
2016-03-15 03:55:00,1654E-3,5C000400,-0724,0835,12031,023.9,045.3,0.262,759.9,01.16,0.508
2016-03-15 03:56:00,1796E-3,5C000400,-0724,0835,12158,023.9,045.3,0.263,759.9,01.16,0.508
2016-03-15 03:57:00,1782E-3,5C000400,-0724,0835,12142,024.0,045.3,0.262,759.9,01.16,0.508
2016-03-15 03:58:00,1708E-3,5C000400,-0724,0835,12132,024.0,045.3,0.263,759.8,01.16,0.508
2016-03-15 03:59:00,1663E-3,5C000400,-0724,0835,12189,024.0,045.3,0.263,759.8,01.16,0.508
2016-03-15 04:00:00,1697E-3,5C000400,-0724,0835,12136,024.0,045.3,0.262,759.8,01.16,0.508
2016-03-15 04:01:00,1704E-3,5C000400,-0724,0835,12096,024.0,045.3,0.263,759.8,01.16,0.508
2016-03-15 04:02:00,1882E-3,5C000400,-0724,0835,12088,024.0,045.3,0.262,759.8,01.16,0.508
2016-03-15 04:03:00,1847E-3,5C000400,-0724,0835,12180,024.0,045.3,0.263,759.8,01.16,0.508
2016-03-15 04:04:00,1778E-3,5C000400,-0724,0835,12242,024.1,045.3,0.262,759.8,01.16,0.508
2016-03-15 04:05:00,1795E-3,5C000400,-0724,0835,12310,024.1,045.3,0.262,759.8,01.16,0.508
2016-03-15 04:06:00,1865E-3,5C000400,-0724,0835,12174,024.1,045.3,0.263,759.8,01.16,0.508
2016-03-15 04:07:00,1839E-3,5C000400,-0724,0835,12212,024.1,045.3,0.262,759.8,01.16,0.508
2016-03-15 04:08:00,1697E-3,5C000400,-0724,0835,12086,024.1,045.3,0.263,759.8,01.16,0.508
2016-03-15 04:09:00,1814E-3,5C000400,-0724,0835,12221,024.1,045.3,0.262,759.8,01.16,0.508
2016-03-15 04:10:00,1756E-3,5C000400,-0724,0835,12099,024.1,045.3,0.262,759.8,01.16,0.508
2016-03-15 04:11:00,1840E-3,5C000400,-0724,0835,12189,024.1,045.3,0.262,759.7,01.16,0.508
2016-03-15 04:12:00,1652E-3,5C000400,-0724,0835,12224,024.1,045.3,0.263,759.7,01.16,0.508
2016-03-15 04:13:00,1801E-3,5C000400,-0724,0835,12145,024.1,045.3,0.262,759.7,01.16,0.508
2016-03-15 04:14:00,1722E-3,5C000400,-0724,0835,12171,024.1,045.3,0.262,759.7,01.16,0.508
2016-03-15 04:15:00,1856E-3,5C000400,-0724,0836,12205,024.2,045.3,0.262,759.7,01.16,0.508
2016-03-15 04:16:00,1837E-3,5C000400,-0724,0835,12155,024.2,045.3,0.262,759.7,01.16,0.508
2016-03-15 04:17:00,1867E-3,5C000400,-0724,0835,12050,024.2,045.3,0.262,759.7,01.16,0.508
2016-03-15 04:18:00,1768E-3,5C000400,-0724,0835,12125,024.2,045.3,0.262,759.7,01.16,0.508
2016-03-15 04:19:00,1739E-3,5C000400,-0724,0836,12237,024.2,045.3,0.262,759.7,01.16,0.508
2016-03-15 04:20:00,1841E-3,5C000400,-0724,0835,12166,024.2,045.3,0.262,759.7,01.16,0.508